AFL1975 UZTT-UUEE

Flight info

Callsign AFL1975
Flight time 4h 0m
Altitude 34000
Route N0460F340 MIKNO L163 INKUM M199 ODILA M875 MULTA M162 PODUT T750 OKSUD T787 OTKOL T784 LARNO T291 URIDU L158 DIMGI
Aircraft B738/M-VGDW/C

Departure

Time 2026-04-22 14:17
Airport Tashkent International Airport (UZTT)

Arrival

Time 2026-04-22 18:18
Airport Sheremetyevo International Airport (UUEE)
Time Latitude Longitude Altitude Speed Heading
2026-04-22 13:55 41.26266 69.26896 1406 ft 0 kts 264°
2026-04-22 14:09 41.26266 69.26898 1403 ft 2 kts 264°
2026-04-22 14:09 41.26268 69.26919 1413 ft 2 kts 264°
2026-04-22 14:09 41.26269 69.26941 1412 ft 2 kts 264°
2026-04-22 14:10 41.26271 69.26963 1412 ft 2 kts 264°
2026-04-22 14:10 41.26271 69.26969 1412 ft 0 kts 264°
2026-04-22 14:12 41.26270 69.26966 1412 ft 1 kts 250°
2026-04-22 14:13 41.26264 69.26967 1413 ft 1 kts 178°
2026-04-22 14:13 41.26258 69.26980 1408 ft 4 kts 122°
2026-04-22 14:13 41.26231 69.27038 1408 ft 11 kts 122°
2026-04-22 14:13 41.26167 69.27121 1411 ft 16 kts 138°
2026-04-22 14:14 41.26078 69.27225 1410 ft 4 kts 151°
2026-04-22 14:14 41.26039 69.27207 1407 ft 9 kts 224°
2026-04-22 14:14 41.26002 69.27109 1409 ft 15 kts 245°
2026-04-22 14:14 41.25952 69.26963 1406 ft 19 kts 246°
2026-04-22 14:15 41.25897 69.26809 1405 ft 18 kts 240°
2026-04-22 14:15 41.25843 69.26662 1407 ft 17 kts 245°
2026-04-22 14:15 41.25794 69.26517 1410 ft 17 kts 246°
2026-04-22 14:15 41.25726 69.26404 1408 ft 16 kts 195°
2026-04-22 14:16 41.25666 69.26497 1403 ft 16 kts 82°
2026-04-22 14:16 41.25668 69.26508 1403 ft 0 kts 82°
2026-04-22 14:16 41.25674 69.26562 1403 ft 22 kts 81°
2026-04-22 14:16 41.25731 69.27074 1403 ft 90 kts 81°
2026-04-22 14:17 41.25851 69.28164 1407 ft 147 kts 81°
2026-04-22 14:17 41.26014 69.29690 1626 ft 175 kts 80°
2026-04-22 14:17 41.26181 69.31291 2334 ft 177 kts 84°
2026-04-22 14:17 41.26361 69.32930 3049 ft 182 kts 83°
2026-04-22 14:18 41.26550 69.34630 3704 ft 187 kts 84°
2026-04-22 14:18 41.26741 69.36356 4389 ft 190 kts 83°
2026-04-22 14:18 41.26938 69.38158 4822 ft 210 kts 84°
2026-04-22 14:18 41.27155 69.40150 5193 ft 223 kts 83°
2026-04-22 14:19 41.27381 69.42221 5660 ft 230 kts 83°
2026-04-22 14:19 41.27609 69.44332 6264 ft 231 kts 83°
2026-04-22 14:19 41.27838 69.46456 6833 ft 233 kts 84°
2026-04-22 14:19 41.28068 69.48602 7347 ft 237 kts 84°
2026-04-22 14:20 41.28003 69.52917 8362 ft 235 kts 124°
2026-04-22 14:20 41.26886 69.54338 8864 ft 225 kts 161°
2026-04-22 14:20 41.25409 69.54942 9427 ft 221 kts 174°
2026-04-22 14:21 41.22841 69.55423 10289 ft 224 kts 177°
2026-04-22 14:21 41.20779 69.55639 10914 ft 224 kts 193°
2026-04-22 14:22 41.18411 69.53206 11555 ft 237 kts 247°
2026-04-22 14:22 41.18081 69.51747 11674 ft 252 kts 257°
2026-04-22 14:22 41.17537 69.46762 12041 ft 297 kts 261°
2026-04-22 14:23 41.17258 69.43942 12202 ft 319 kts 261°
2026-04-22 14:23 41.16943 69.40938 12449 ft 336 kts 260°
2026-04-22 14:23 41.16604 69.37839 12984 ft 343 kts 260°
2026-04-22 14:23 41.16257 69.34695 13679 ft 345 kts 260°
2026-04-22 14:24 41.15905 69.31541 14311 ft 347 kts 260°
2026-04-22 14:24 41.15550 69.28369 14948 ft 348 kts 260°
2026-04-22 14:24 41.15193 69.25181 15566 ft 351 kts 260°
2026-04-22 14:24 41.14833 69.21970 16186 ft 353 kts 259°
2026-04-22 14:25 41.14593 69.18719 16767 ft 358 kts 270°
2026-04-22 14:25 41.15118 69.15462 17352 ft 368 kts 288°
2026-04-22 14:25 41.16439 69.12509 17910 ft 380 kts 306°
2026-04-22 14:25 41.18483 69.10210 18396 ft 395 kts 325°
2026-04-22 14:26 41.21085 69.08901 18856 ft 409 kts 345°
2026-04-22 14:26 41.23926 69.08400 19377 ft 414 kts 349°
2026-04-22 14:26 41.26801 69.07985 19833 ft 418 kts 349°
2026-04-22 14:26 41.29703 69.07516 20287 ft 421 kts 348°
2026-04-22 14:27 41.32585 69.06839 20719 ft 419 kts 337°
2026-04-22 14:27 41.35163 69.05161 21158 ft 409 kts 319°
2026-04-22 14:27 41.37424 69.02872 21649 ft 409 kts 316°
2026-04-22 14:27 41.39659 69.00504 22069 ft 412 kts 315°
2026-04-22 14:28 41.41909 68.98108 22473 ft 416 kts 316°
2026-04-22 14:28 41.44188 68.95699 22897 ft 420 kts 316°
2026-04-22 14:28 41.46493 68.93287 23330 ft 423 kts 316°
2026-04-22 14:28 41.48819 68.90866 23683 ft 426 kts 316°
2026-04-22 14:29 41.51167 68.88430 24024 ft 429 kts 316°
2026-04-22 14:29 41.53529 68.85981 24378 ft 431 kts 316°
2026-04-22 14:29 41.55902 68.83519 24740 ft 433 kts 316°
2026-04-22 14:29 41.58285 68.81042 25082 ft 436 kts 316°
2026-04-22 14:30 41.60685 68.78543 25416 ft 438 kts 316°
2026-04-22 14:30 41.63096 68.76030 25741 ft 441 kts 316°
2026-04-22 14:30 41.65523 68.73498 26055 ft 444 kts 315°
2026-04-22 14:30 41.67963 68.70950 26381 ft 446 kts 315°
2026-04-22 14:31 41.70412 68.68391 26689 ft 448 kts 315°
2026-04-22 14:31 41.72874 68.65816 26995 ft 451 kts 315°
2026-04-22 14:31 41.75353 68.63220 27292 ft 453 kts 315°
2026-04-22 14:31 41.77840 68.60612 27596 ft 455 kts 315°
2026-04-22 14:32 41.80346 68.57982 27877 ft 458 kts 315°
2026-04-22 14:32 41.82858 68.55344 28149 ft 461 kts 314°
2026-04-22 14:32 41.85388 68.52684 28425 ft 463 kts 314°
2026-04-22 14:32 41.87771 68.49827 28660 ft 454 kts 302°
2026-04-22 14:33 41.89623 68.46441 28969 ft 448 kts 297°
2026-04-22 14:33 41.91375 68.42989 29387 ft 447 kts 296°
2026-04-22 14:33 41.93119 68.39550 29824 ft 445 kts 296°
2026-04-22 14:33 41.94875 68.36133 30184 ft 444 kts 296°
2026-04-22 14:34 41.96648 68.32730 30493 ft 444 kts 297°
2026-04-22 14:34 41.98429 68.29338 30816 ft 444 kts 297°
2026-04-22 14:34 42.00209 68.25956 31148 ft 442 kts 296°
2026-04-22 14:34 42.01959 68.22628 31466 ft 441 kts 296°
2026-04-22 14:35 42.03777 68.19226 31760 ft 444 kts 299°
2026-04-22 14:35 42.05753 68.16068 32046 ft 449 kts 303°
2026-04-22 14:35 42.07892 68.12991 32349 ft 451 kts 304°
2026-04-22 14:35 42.10075 68.09961 32639 ft 451 kts 305°
2026-04-22 14:36 42.12259 68.06936 32923 ft 450 kts 304°
2026-04-22 14:36 42.14427 68.03893 33197 ft 449 kts 304°
2026-04-22 14:36 42.16574 68.00839 33481 ft 448 kts 303°
2026-04-22 14:36 42.18704 67.97774 33746 ft 448 kts 303°
2026-04-22 14:37 42.20828 67.94695 33821 ft 450 kts 303°
2026-04-22 14:37 42.25091 67.88479 33830 ft 451 kts 303°
2026-04-22 14:38 42.29326 67.82305 33819 ft 445 kts 303°
2026-04-22 14:38 42.33522 67.76169 33831 ft 444 kts 303°
2026-04-22 14:39 42.37706 67.70036 33832 ft 444 kts 303°
2026-04-22 14:39 42.41888 67.63895 33834 ft 444 kts 303°
2026-04-22 14:40 42.48159 67.54663 33829 ft 445 kts 303°
2026-04-22 14:40 42.52344 67.48486 33831 ft 445 kts 303°
2026-04-22 14:41 42.56535 67.42288 33826 ft 446 kts 302°
2026-04-22 14:41 42.60734 67.36070 33821 ft 447 kts 303°
2026-04-22 14:42 42.64936 67.29839 33822 ft 447 kts 302°
2026-04-22 14:42 42.69136 67.23596 33820 ft 448 kts 302°
2026-04-22 14:43 42.73334 67.17342 33819 ft 448 kts 302°
2026-04-22 14:43 42.77525 67.11085 33819 ft 447 kts 302°
2026-04-22 14:44 42.81710 67.04824 33821 ft 447 kts 302°
2026-04-22 14:44 42.85887 66.98559 33818 ft 446 kts 302°
2026-04-22 14:45 42.90055 66.92294 33813 ft 446 kts 302°
2026-04-22 14:45 42.94214 66.86029 33808 ft 445 kts 302°
2026-04-22 14:46 42.98363 66.79767 33810 ft 444 kts 302°
2026-04-22 14:46 43.02475 66.73543 33801 ft 444 kts 302°
2026-04-22 14:47 43.06632 66.67230 33797 ft 444 kts 302°
2026-04-22 14:47 43.10727 66.60995 33797 ft 443 kts 302°
2026-04-22 14:48 43.14840 66.54720 33791 ft 443 kts 302°
2026-04-22 14:48 43.18953 66.48433 33788 ft 443 kts 302°
2026-04-22 14:49 43.23059 66.42146 33786 ft 443 kts 302°
2026-04-22 14:49 43.27165 66.35850 33783 ft 443 kts 302°
2026-04-22 14:50 43.31268 66.29544 33778 ft 443 kts 302°
2026-04-22 14:50 43.35369 66.23226 33778 ft 443 kts 302°
2026-04-22 14:51 43.39466 66.16898 33775 ft 443 kts 302°
2026-04-22 14:51 43.43565 66.10555 33777 ft 444 kts 302°
2026-04-22 14:52 43.47664 66.04198 33764 ft 444 kts 302°
2026-04-22 14:52 43.51760 65.97832 33773 ft 444 kts 302°
2026-04-22 14:53 43.55858 65.91447 33771 ft 445 kts 302°
2026-04-22 14:53 43.59958 65.85045 33773 ft 445 kts 302°
2026-04-22 14:54 43.64055 65.78634 33779 ft 446 kts 302°
2026-04-22 14:54 43.68156 65.72203 33781 ft 446 kts 302°
2026-04-22 14:55 43.72256 65.65759 33780 ft 447 kts 302°
2026-04-22 14:55 43.76355 65.59301 33777 ft 447 kts 302°
2026-04-22 14:56 43.80457 65.52823 33773 ft 447 kts 302°
2026-04-22 14:56 43.84557 65.46334 33775 ft 448 kts 302°
2026-04-22 14:57 43.88658 65.39831 33776 ft 448 kts 302°
2026-04-22 14:57 43.92754 65.33318 33776 ft 448 kts 302°
2026-04-22 14:58 43.96849 65.26794 33776 ft 448 kts 302°
2026-04-22 14:58 44.00915 65.20300 33762 ft 448 kts 302°
2026-04-22 14:59 44.05004 65.13755 33777 ft 448 kts 302°
2026-04-22 14:59 44.09086 65.07205 33773 ft 448 kts 302°
2026-04-22 15:00 44.13167 65.00642 33776 ft 448 kts 302°
2026-04-22 15:00 44.17240 64.94076 33775 ft 448 kts 302°
2026-04-22 15:01 44.21335 64.87460 33771 ft 448 kts 302°
2026-04-22 15:01 44.25372 64.80923 33769 ft 448 kts 301°
2026-04-22 15:02 44.29425 64.74333 33770 ft 447 kts 301°
2026-04-22 15:02 44.33468 64.67738 33772 ft 447 kts 301°
2026-04-22 15:03 44.37507 64.61140 33774 ft 447 kts 301°
2026-04-22 15:03 44.41546 64.54547 33780 ft 446 kts 301°
2026-04-22 15:04 44.45577 64.47953 33784 ft 446 kts 301°
2026-04-22 15:04 44.49595 64.41354 33783 ft 445 kts 301°
2026-04-22 15:05 44.53602 64.34757 33785 ft 444 kts 301°
2026-04-22 15:05 44.57600 64.28160 33785 ft 443 kts 301°
2026-04-22 15:06 44.60914 64.22680 33784 ft 443 kts 301°
2026-04-22 15:06 44.64893 64.16085 33787 ft 442 kts 301°
2026-04-22 15:07 44.68863 64.09491 33794 ft 442 kts 301°
2026-04-22 15:07 44.72824 64.02896 33796 ft 441 kts 300°
2026-04-22 15:08 44.76777 63.96298 33793 ft 441 kts 300°
2026-04-22 15:08 44.80728 63.89688 33797 ft 441 kts 300°
2026-04-22 15:09 44.84671 63.83077 33799 ft 441 kts 300°
2026-04-22 15:09 44.88609 63.76459 33803 ft 440 kts 300°
2026-04-22 15:10 44.92540 63.69837 33809 ft 440 kts 300°
2026-04-22 15:10 44.96465 63.63209 33811 ft 440 kts 300°
2026-04-22 15:11 45.00380 63.56584 33813 ft 439 kts 300°
2026-04-22 15:11 45.04290 63.49952 33814 ft 438 kts 300°
2026-04-22 15:12 45.08188 63.43323 33848 ft 440 kts 300°
2026-04-22 15:12 45.10151 63.39973 33952 ft 443 kts 300°
2026-04-22 15:12 45.12119 63.36615 34180 ft 443 kts 300°
2026-04-22 15:13 45.14080 63.33270 34475 ft 440 kts 300°
2026-04-22 15:13 45.16035 63.29932 34722 ft 440 kts 300°
2026-04-22 15:13 45.17985 63.26595 34911 ft 440 kts 300°
2026-04-22 15:13 45.19938 63.23246 35078 ft 441 kts 300°
2026-04-22 15:14 45.21891 63.19894 35292 ft 440 kts 300°
2026-04-22 15:14 45.23814 63.16590 35510 ft 440 kts 300°
2026-04-22 15:14 45.25760 63.13243 35705 ft 440 kts 300°
2026-04-22 15:14 45.27731 63.09848 35821 ft 441 kts 300°
2026-04-22 15:15 45.31617 63.03138 35834 ft 443 kts 300°
2026-04-22 15:15 45.35517 62.96401 35833 ft 440 kts 300°
2026-04-22 15:16 45.39389 62.89693 35838 ft 438 kts 300°
2026-04-22 15:16 45.43241 62.82998 35839 ft 436 kts 300°
2026-04-22 15:17 45.47076 62.76316 35841 ft 435 kts 300°
2026-04-22 15:17 45.50906 62.69626 35844 ft 436 kts 300°
2026-04-22 15:18 45.54740 62.62914 35848 ft 437 kts 300°
2026-04-22 15:18 45.58582 62.56172 35848 ft 439 kts 300°
2026-04-22 15:19 45.62435 62.49396 35852 ft 441 kts 300°
2026-04-22 15:19 45.66306 62.42572 35848 ft 442 kts 300°
2026-04-22 15:20 45.70182 62.35722 35849 ft 444 kts 300°
2026-04-22 15:20 45.74067 62.28841 35848 ft 445 kts 300°
2026-04-22 15:21 45.77949 62.21947 35846 ft 445 kts 300°
2026-04-22 15:21 45.81805 62.15101 35848 ft 445 kts 302°
2026-04-22 15:22 45.86508 62.09102 35853 ft 460 kts 317°
2026-04-22 15:22 45.91808 62.03911 35854 ft 461 kts 318°
2026-04-22 15:23 45.97097 61.98729 35851 ft 459 kts 317°
2026-04-22 15:23 46.02337 61.93489 35850 ft 458 kts 317°
2026-04-22 15:24 46.07547 61.88230 35854 ft 457 kts 317°
2026-04-22 15:24 46.12752 61.82965 35857 ft 457 kts 317°
2026-04-22 15:25 46.17960 61.77689 35860 ft 457 kts 317°
2026-04-22 15:25 46.23162 61.72406 35862 ft 457 kts 317°
2026-04-22 15:26 46.28362 61.67099 35864 ft 458 kts 317°
2026-04-22 15:26 46.33566 61.61773 35867 ft 458 kts 317°
2026-04-22 15:27 46.38769 61.56436 35869 ft 459 kts 317°
2026-04-22 15:27 46.43974 61.51085 35867 ft 459 kts 317°
2026-04-22 15:28 46.49182 61.45719 35874 ft 459 kts 317°
2026-04-22 15:28 46.54387 61.40343 35864 ft 459 kts 317°
2026-04-22 15:29 46.59587 61.34958 35874 ft 459 kts 317°
2026-04-22 15:30 46.67336 61.26911 35868 ft 458 kts 317°
2026-04-22 15:30 46.72516 61.21516 35865 ft 457 kts 317°
2026-04-22 15:31 46.77683 61.16121 35868 ft 456 kts 317°
2026-04-22 15:31 46.82838 61.10725 35867 ft 456 kts 317°
2026-04-22 15:32 46.87980 61.05329 35870 ft 455 kts 317°
2026-04-22 15:32 46.93119 60.99925 35872 ft 454 kts 317°
2026-04-22 15:33 46.98245 60.94520 35873 ft 454 kts 317°
2026-04-22 15:33 47.03360 60.89115 35882 ft 453 kts 317°
2026-04-22 15:34 47.08471 60.83699 35883 ft 453 kts 318°
2026-04-22 15:34 47.13579 60.78274 35882 ft 453 kts 318°
2026-04-22 15:35 47.17819 60.73761 35889 ft 453 kts 318°
2026-04-22 15:35 47.23784 60.67398 35884 ft 453 kts 318°
2026-04-22 15:36 47.28886 60.61940 35887 ft 453 kts 318°
2026-04-22 15:36 47.33984 60.56473 35888 ft 453 kts 318°
2026-04-22 15:37 47.39072 60.51004 35888 ft 453 kts 318°
2026-04-22 15:37 47.44157 60.45525 35892 ft 452 kts 318°
2026-04-22 15:38 47.49238 60.40036 35894 ft 452 kts 318°
2026-04-22 15:38 47.56808 60.31832 35896 ft 452 kts 318°
2026-04-22 15:39 47.61869 60.26331 35887 ft 451 kts 318°
2026-04-22 15:39 47.66920 60.20827 35892 ft 450 kts 318°
2026-04-22 15:40 47.71961 60.15322 35890 ft 449 kts 318°
2026-04-22 15:40 47.76991 60.09816 35892 ft 449 kts 318°
2026-04-22 15:41 47.82010 60.04309 35893 ft 448 kts 318°
2026-04-22 15:41 47.87019 59.98799 35895 ft 447 kts 318°
2026-04-22 15:42 47.92017 59.93287 35898 ft 447 kts 318°
2026-04-22 15:42 47.97009 59.87771 35901 ft 446 kts 318°
2026-04-22 15:43 48.01993 59.82249 35895 ft 446 kts 318°
2026-04-22 15:43 48.06970 59.76721 35882 ft 445 kts 318°
2026-04-22 15:44 48.11938 59.71189 35891 ft 445 kts 318°
2026-04-22 15:44 48.16898 59.65650 35892 ft 445 kts 318°
2026-04-22 15:45 48.21852 59.60106 35894 ft 444 kts 318°
2026-04-22 15:45 48.26800 59.54555 35884 ft 444 kts 318°
2026-04-22 15:46 48.31744 59.48993 35895 ft 444 kts 318°
2026-04-22 15:46 48.36680 59.43428 35891 ft 444 kts 318°
2026-04-22 15:47 48.41581 59.37888 35889 ft 443 kts 318°
2026-04-22 15:47 48.46507 59.32307 35891 ft 443 kts 318°
2026-04-22 15:48 48.51432 59.26712 35883 ft 443 kts 318°
2026-04-22 15:48 48.56351 59.21110 35885 ft 443 kts 318°
2026-04-22 15:49 48.61264 59.15501 35891 ft 443 kts 318°
2026-04-22 15:49 48.66175 59.09880 35888 ft 443 kts 318°
2026-04-22 15:50 48.71082 59.04250 35891 ft 443 kts 318°
2026-04-22 15:50 48.75987 58.98606 35888 ft 443 kts 318°
2026-04-22 15:51 48.80884 58.92959 35896 ft 442 kts 318°
2026-04-22 15:51 48.85780 58.87300 35892 ft 442 kts 317°
2026-04-22 15:52 48.90671 58.81631 35898 ft 442 kts 317°
2026-04-22 15:52 48.95559 58.75949 35899 ft 442 kts 317°
2026-04-22 15:53 49.00440 58.70261 35892 ft 442 kts 317°
2026-04-22 15:53 49.05319 58.64560 35892 ft 442 kts 317°
2026-04-22 15:54 49.09368 58.59817 35909 ft 441 kts 317°
2026-04-22 15:54 49.14235 58.54104 35891 ft 441 kts 317°
2026-04-22 15:55 49.19100 58.48379 35898 ft 441 kts 317°
2026-04-22 15:55 49.23953 58.42652 35894 ft 441 kts 317°
2026-04-22 15:56 49.28800 58.36918 35897 ft 440 kts 316°
2026-04-22 15:56 49.33641 58.31177 35889 ft 440 kts 316°
2026-04-22 15:57 49.38473 58.25434 35889 ft 439 kts 316°
2026-04-22 15:57 49.43302 58.19682 35890 ft 439 kts 316°
2026-04-22 15:58 49.48121 58.13924 35892 ft 439 kts 316°
2026-04-22 15:58 49.52944 58.08147 35893 ft 439 kts 316°
2026-04-22 15:59 49.57767 58.02355 35891 ft 440 kts 316°
2026-04-22 15:59 49.62568 57.96575 35891 ft 441 kts 316°
2026-04-22 16:00 49.67406 57.90735 35893 ft 442 kts 316°
2026-04-22 16:00 49.72356 57.85053 35883 ft 448 kts 324°
2026-04-22 16:01 49.78006 57.80795 35890 ft 454 kts 330°
2026-04-22 16:01 49.83762 57.76772 35890 ft 454 kts 330°
2026-04-22 16:02 49.89517 57.72690 35888 ft 455 kts 329°
2026-04-22 16:02 49.95256 57.68546 35888 ft 455 kts 329°
2026-04-22 16:03 50.00990 57.64371 35883 ft 455 kts 329°
2026-04-22 16:03 50.06710 57.60194 35877 ft 453 kts 329°
2026-04-22 16:04 50.12404 57.56026 35871 ft 451 kts 329°
2026-04-22 16:04 50.18081 57.51860 35868 ft 450 kts 329°
2026-04-22 16:05 50.23743 57.47695 35866 ft 449 kts 329°
2026-04-22 16:05 50.29359 57.43551 35861 ft 450 kts 329°
2026-04-22 16:06 50.35056 57.39337 35869 ft 450 kts 329°
2026-04-22 16:06 50.40689 57.35160 35863 ft 452 kts 328°
2026-04-22 16:07 50.46374 57.30933 35868 ft 453 kts 328°
2026-04-22 16:07 50.52074 57.26683 35873 ft 454 kts 328°
2026-04-22 16:08 50.57798 57.22404 35864 ft 456 kts 328°
2026-04-22 16:08 50.63533 57.18105 35869 ft 457 kts 328°
2026-04-22 16:09 50.69284 57.13784 35862 ft 458 kts 328°
2026-04-22 16:09 50.75039 57.09448 35871 ft 459 kts 328°
2026-04-22 16:10 50.80796 57.05098 35867 ft 458 kts 328°
2026-04-22 16:10 50.86546 57.00740 35867 ft 458 kts 328°
2026-04-22 16:11 50.92287 56.96378 35858 ft 457 kts 328°
2026-04-22 16:11 50.98018 56.92010 35863 ft 457 kts 328°
2026-04-22 16:12 51.03746 56.87634 35856 ft 456 kts 328°
2026-04-22 16:12 51.08956 56.82214 35859 ft 442 kts 311°
2026-04-22 16:13 51.12989 56.75026 35854 ft 433 kts 303°
2026-04-22 16:13 51.16819 56.67616 35857 ft 433 kts 303°
2026-04-22 16:14 51.20669 56.60220 35851 ft 434 kts 303°
2026-04-22 16:14 51.24543 56.52827 35852 ft 434 kts 304°
2026-04-22 16:15 51.28421 56.45424 35842 ft 435 kts 304°
2026-04-22 16:15 51.32270 56.38055 35848 ft 435 kts 304°
2026-04-22 16:16 51.36143 56.30616 35842 ft 435 kts 303°
2026-04-22 16:16 51.40010 56.23167 35845 ft 435 kts 303°
2026-04-22 16:17 51.43878 56.15694 35841 ft 435 kts 303°
2026-04-22 16:17 51.47740 56.08210 35839 ft 436 kts 303°
2026-04-22 16:18 51.51599 56.00714 35840 ft 436 kts 303°
2026-04-22 16:18 51.55453 55.93205 35837 ft 436 kts 303°
2026-04-22 16:19 51.59306 55.85680 35831 ft 436 kts 303°
2026-04-22 16:19 51.63150 55.78149 35837 ft 436 kts 303°
2026-04-22 16:20 51.66990 55.70602 35834 ft 435 kts 303°
2026-04-22 16:20 51.70823 55.63046 35832 ft 435 kts 303°
2026-04-22 16:21 51.74650 55.55479 35832 ft 435 kts 303°
2026-04-22 16:21 51.78475 55.47897 35832 ft 435 kts 303°
2026-04-22 16:22 51.84064 55.36367 35832 ft 434 kts 301°
2026-04-22 16:23 51.89520 55.24692 35832 ft 434 kts 301°
2026-04-22 16:23 51.93169 55.16907 35827 ft 434 kts 301°
2026-04-22 16:24 51.98635 55.05226 35822 ft 433 kts 301°
2026-04-22 16:25 52.02267 54.97432 35824 ft 433 kts 301°
2026-04-22 16:25 52.07702 54.85729 35829 ft 432 kts 301°
2026-04-22 16:26 52.11297 54.77967 35820 ft 433 kts 301°
2026-04-22 16:26 52.14912 54.70139 35826 ft 433 kts 301°
2026-04-22 16:27 52.18523 54.62295 35821 ft 433 kts 301°
2026-04-22 16:27 52.22129 54.54434 35823 ft 433 kts 301°
2026-04-22 16:28 52.25729 54.46564 35810 ft 433 kts 301°
2026-04-22 16:28 52.29320 54.38694 35813 ft 432 kts 301°
2026-04-22 16:29 52.32702 54.30644 35806 ft 425 kts 292°
2026-04-22 16:29 52.35373 54.22059 35814 ft 423 kts 291°
2026-04-22 16:30 52.37998 54.13441 35813 ft 423 kts 291°
2026-04-22 16:30 52.40644 54.04824 35810 ft 424 kts 291°
2026-04-22 16:31 52.43301 53.96205 35806 ft 424 kts 291°
2026-04-22 16:31 52.45955 53.87580 35801 ft 424 kts 291°
2026-04-22 16:32 52.48603 53.78942 35799 ft 424 kts 291°
2026-04-22 16:32 52.51246 53.70291 35801 ft 424 kts 291°
2026-04-22 16:33 52.53866 53.61681 35794 ft 424 kts 291°
2026-04-22 16:33 52.56514 53.52949 35795 ft 424 kts 291°
2026-04-22 16:34 52.59122 53.44316 35796 ft 424 kts 291°
2026-04-22 16:34 52.61741 53.35616 35789 ft 425 kts 291°
2026-04-22 16:35 52.64356 53.26902 35787 ft 425 kts 291°
2026-04-22 16:35 52.66966 53.18172 35782 ft 425 kts 291°
2026-04-22 16:36 52.69568 53.09431 35784 ft 425 kts 291°
2026-04-22 16:36 52.72169 53.00667 35784 ft 426 kts 291°
2026-04-22 16:37 52.74766 52.91886 35779 ft 426 kts 291°
2026-04-22 16:37 52.77356 52.83092 35781 ft 426 kts 291°
2026-04-22 16:38 52.79943 52.74273 35776 ft 427 kts 291°
2026-04-22 16:38 52.82524 52.65439 35774 ft 427 kts 291°
2026-04-22 16:39 52.85099 52.56594 35768 ft 427 kts 291°
2026-04-22 16:39 52.87670 52.47731 35773 ft 427 kts 291°
2026-04-22 16:40 52.90235 52.38853 35763 ft 428 kts 291°
2026-04-22 16:41 52.94073 52.25506 35769 ft 428 kts 291°
2026-04-22 16:41 52.96627 52.16586 35762 ft 428 kts 291°
2026-04-22 16:42 52.99176 52.07648 35755 ft 429 kts 291°
2026-04-22 16:42 53.01292 52.00205 35763 ft 429 kts 291°
2026-04-22 16:43 53.04238 51.89784 35759 ft 429 kts 291°
2026-04-22 16:43 53.06356 51.82260 35759 ft 429 kts 290°
2026-04-22 16:44 53.08877 51.73277 35758 ft 429 kts 290°
2026-04-22 16:44 53.11392 51.64277 35756 ft 429 kts 290°
2026-04-22 16:45 53.13900 51.55269 35751 ft 429 kts 290°
2026-04-22 16:45 53.16402 51.46256 35751 ft 428 kts 290°
2026-04-22 16:46 53.18876 51.37304 35747 ft 428 kts 290°
2026-04-22 16:46 53.21357 51.28289 35745 ft 428 kts 290°
2026-04-22 16:47 53.23830 51.19270 35754 ft 427 kts 290°
2026-04-22 16:47 53.26297 51.10237 35745 ft 427 kts 290°
2026-04-22 16:48 53.28754 51.01205 35746 ft 427 kts 290°
2026-04-22 16:48 53.31207 50.92154 35745 ft 427 kts 290°
2026-04-22 16:49 53.33653 50.83095 35747 ft 428 kts 290°
2026-04-22 16:49 53.36094 50.74015 35741 ft 428 kts 290°
2026-04-22 16:50 53.38530 50.64916 35744 ft 428 kts 290°
2026-04-22 16:50 53.40962 50.55799 35745 ft 429 kts 290°
2026-04-22 16:51 53.43390 50.46657 35748 ft 429 kts 290°
2026-04-22 16:51 53.45815 50.37493 35749 ft 430 kts 290°
2026-04-22 16:52 53.48236 50.28309 35750 ft 430 kts 290°
2026-04-22 16:52 53.50659 50.19114 35737 ft 431 kts 292°
2026-04-22 16:53 53.53797 50.10472 35758 ft 435 kts 301°
2026-04-22 16:53 53.57222 50.02071 35761 ft 435 kts 301°
2026-04-22 16:54 53.60602 49.93688 35747 ft 436 kts 300°
2026-04-22 16:54 53.63978 49.85200 35746 ft 436 kts 300°
2026-04-22 16:55 53.67339 49.76693 35739 ft 436 kts 300°
2026-04-22 16:55 53.70694 49.68172 35738 ft 436 kts 300°
2026-04-22 16:56 53.74044 49.59639 35739 ft 436 kts 300°
2026-04-22 16:56 53.77385 49.51104 35740 ft 435 kts 300°
2026-04-22 16:57 53.80720 49.42552 35735 ft 435 kts 300°
2026-04-22 16:57 53.84046 49.33997 35745 ft 435 kts 300°
2026-04-22 16:58 53.86803 49.26880 35739 ft 435 kts 300°
2026-04-22 16:58 53.90674 49.16856 35740 ft 434 kts 300°
2026-04-22 16:59 53.93977 49.08275 35742 ft 434 kts 301°
2026-04-22 16:59 53.97271 48.99678 35739 ft 434 kts 300°
2026-04-22 17:00 54.00533 48.91127 35741 ft 434 kts 300°
2026-04-22 17:00 54.05451 48.78181 35740 ft 434 kts 300°
2026-04-22 17:01 54.08722 48.69535 35744 ft 434 kts 300°
2026-04-22 17:01 54.11987 48.60875 35736 ft 434 kts 300°
2026-04-22 17:02 54.15244 48.52204 35734 ft 434 kts 300°
2026-04-22 17:02 54.18497 48.43514 35726 ft 434 kts 300°
2026-04-22 17:03 54.21746 48.34804 35711 ft 435 kts 300°
2026-04-22 17:03 54.24989 48.26085 35722 ft 435 kts 300°
2026-04-22 17:04 54.28191 48.17293 35729 ft 435 kts 299°
2026-04-22 17:04 54.31290 48.08375 35723 ft 436 kts 298°
2026-04-22 17:05 54.34378 47.99425 35729 ft 437 kts 299°
2026-04-22 17:05 54.37477 47.90459 35729 ft 437 kts 299°
2026-04-22 17:06 54.40578 47.81476 35728 ft 438 kts 299°
2026-04-22 17:06 54.43678 47.72472 35732 ft 438 kts 299°
2026-04-22 17:07 54.46770 47.63455 35724 ft 438 kts 299°
2026-04-22 17:07 54.49833 47.54488 35723 ft 438 kts 299°
2026-04-22 17:08 54.52909 47.45450 35719 ft 438 kts 299°
2026-04-22 17:08 54.55978 47.36400 35716 ft 438 kts 299°
2026-04-22 17:09 54.59041 47.27331 35717 ft 438 kts 299°
2026-04-22 17:09 54.62097 47.18251 35703 ft 438 kts 299°
2026-04-22 17:10 54.65148 47.09156 35708 ft 438 kts 299°
2026-04-22 17:10 54.68190 47.00037 35698 ft 438 kts 298°
2026-04-22 17:11 54.71170 46.90857 35703 ft 438 kts 298°
2026-04-22 17:11 54.74134 46.81645 35695 ft 438 kts 298°
2026-04-22 17:12 54.77099 46.72425 35693 ft 438 kts 298°
2026-04-22 17:12 54.80065 46.63184 35683 ft 439 kts 298°
2026-04-22 17:13 54.83326 46.54269 35688 ft 439 kts 307°
2026-04-22 17:13 54.87128 46.45969 35679 ft 439 kts 308°
2026-04-22 17:14 54.90950 46.37678 35679 ft 440 kts 308°
2026-04-22 17:14 54.94745 46.29337 35668 ft 440 kts 307°
2026-04-22 17:15 54.98519 46.20966 35673 ft 440 kts 307°
2026-04-22 17:15 55.02285 46.12568 35664 ft 440 kts 307°
2026-04-22 17:16 55.06045 46.04156 35663 ft 440 kts 307°
2026-04-22 17:16 55.09800 45.95729 35661 ft 440 kts 307°
2026-04-22 17:17 55.13550 45.87284 35662 ft 440 kts 307°
2026-04-22 17:17 55.17292 45.78828 35654 ft 439 kts 307°
2026-04-22 17:18 55.21027 45.70362 35656 ft 439 kts 307°
2026-04-22 17:18 55.24730 45.61936 35653 ft 439 kts 307°
2026-04-22 17:19 55.32164 45.44933 35649 ft 439 kts 307°
2026-04-22 17:20 55.39566 45.27887 35645 ft 439 kts 307°
2026-04-22 17:21 55.45102 45.15060 35642 ft 438 kts 307°
2026-04-22 17:22 55.50621 45.02207 35644 ft 438 kts 307°
2026-04-22 17:23 55.55800 44.88951 35640 ft 438 kts 293°
2026-04-22 17:23 55.57298 44.78591 35632 ft 438 kts 274°
2026-04-22 17:23 55.57452 44.73219 35645 ft 437 kts 272°
2026-04-22 17:24 55.57650 44.62464 35637 ft 438 kts 272°
2026-04-22 17:24 55.57867 44.51699 35632 ft 439 kts 272°
2026-04-22 17:25 55.58115 44.40917 35637 ft 439 kts 273°
2026-04-22 17:25 55.58367 44.30129 35636 ft 439 kts 272°
2026-04-22 17:26 55.58610 44.19328 35633 ft 440 kts 272°
2026-04-22 17:26 55.58842 44.08520 35633 ft 440 kts 272°
2026-04-22 17:27 55.59065 43.97716 35638 ft 440 kts 272°
2026-04-22 17:27 55.59279 43.86903 35634 ft 440 kts 272°
2026-04-22 17:28 55.60324 43.76379 35640 ft 438 kts 289°
2026-04-22 17:28 55.63003 43.66736 35642 ft 437 kts 300°
2026-04-22 17:29 55.66109 43.57473 35631 ft 438 kts 301°
2026-04-22 17:29 55.69183 43.48163 35627 ft 438 kts 300°
2026-04-22 17:30 55.72214 43.38807 35626 ft 438 kts 300°
2026-04-22 17:30 55.75235 43.29422 35624 ft 438 kts 300°
2026-04-22 17:31 55.77759 43.21554 35644 ft 438 kts 298°
2026-04-22 17:31 55.79836 43.11409 35619 ft 438 kts 281°
2026-04-22 17:32 55.80513 43.00654 35617 ft 437 kts 276°
2026-04-22 17:32 55.81055 42.89894 35611 ft 436 kts 276°
2026-04-22 17:33 55.81620 42.79175 35611 ft 435 kts 276°
2026-04-22 17:33 55.82201 42.68483 35609 ft 434 kts 276°
2026-04-22 17:34 55.82775 42.57888 35611 ft 433 kts 276°
2026-04-22 17:34 55.83342 42.47242 35602 ft 432 kts 276°
2026-04-22 17:35 55.83899 42.36608 35603 ft 431 kts 276°
2026-04-22 17:35 55.84446 42.25982 35601 ft 431 kts 276°
2026-04-22 17:36 55.84982 42.15366 35599 ft 431 kts 276°
2026-04-22 17:36 55.85510 42.04741 35597 ft 431 kts 276°
2026-04-22 17:37 55.86029 41.94117 35598 ft 431 kts 276°
2026-04-22 17:37 55.86541 41.83485 35593 ft 431 kts 276°
2026-04-22 17:38 55.86740 41.72812 35596 ft 432 kts 268°
2026-04-22 17:38 55.86387 41.62131 35593 ft 433 kts 267°
2026-04-22 17:39 55.85996 41.51431 35593 ft 433 kts 268°
2026-04-22 17:40 55.85466 41.35381 35588 ft 433 kts 268°
2026-04-22 17:40 55.85119 41.24667 35589 ft 433 kts 268°
2026-04-22 17:41 55.84764 41.13966 35589 ft 433 kts 268°
2026-04-22 17:41 55.84401 41.03352 35423 ft 434 kts 268°
2026-04-22 17:41 55.84214 40.98006 35107 ft 430 kts 268°
2026-04-22 17:42 55.84027 40.92722 34691 ft 426 kts 268°
2026-04-22 17:42 55.83840 40.87490 34305 ft 422 kts 268°
2026-04-22 17:42 55.83653 40.82308 33911 ft 418 kts 268°
2026-04-22 17:42 55.83465 40.77161 33501 ft 415 kts 268°
2026-04-22 17:43 55.83278 40.72066 33019 ft 412 kts 268°
2026-04-22 17:43 55.83089 40.67006 32598 ft 408 kts 268°
2026-04-22 17:43 55.82899 40.62001 32209 ft 403 kts 268°
2026-04-22 17:43 55.82705 40.57059 31839 ft 398 kts 268°
2026-04-22 17:44 55.82508 40.52170 31440 ft 395 kts 268°
2026-04-22 17:44 55.82310 40.47326 31049 ft 391 kts 268°
2026-04-22 17:44 55.82113 40.42535 30678 ft 387 kts 268°
2026-04-22 17:44 55.81917 40.37787 30306 ft 383 kts 268°
2026-04-22 17:45 55.81721 40.33082 29940 ft 380 kts 268°
2026-04-22 17:45 55.81525 40.28419 29562 ft 376 kts 268°
2026-04-22 17:45 55.81329 40.23798 29142 ft 372 kts 268°
2026-04-22 17:45 55.81135 40.19242 28772 ft 368 kts 268°
2026-04-22 17:46 55.80941 40.14741 28392 ft 363 kts 268°
2026-04-22 17:46 55.80748 40.10293 28011 ft 359 kts 268°
2026-04-22 17:46 55.80556 40.05891 27644 ft 355 kts 268°
2026-04-22 17:46 55.80364 40.01539 27275 ft 351 kts 268°
2026-04-22 17:47 55.80173 39.97233 26905 ft 348 kts 268°
2026-04-22 17:47 55.79982 39.92961 26525 ft 345 kts 268°
2026-04-22 17:47 55.79792 39.88727 26178 ft 342 kts 268°
2026-04-22 17:47 55.79601 39.84529 25817 ft 340 kts 268°
2026-04-22 17:48 55.79474 39.81767 25580 ft 338 kts 268°
2026-04-22 17:48 55.79162 39.76271 25313 ft 331 kts 266°
2026-04-22 17:48 55.78885 39.72185 25134 ft 338 kts 265°
2026-04-22 17:48 55.78596 39.67980 24936 ft 346 kts 265°
2026-04-22 17:49 55.78303 39.63717 24724 ft 348 kts 265°
2026-04-22 17:49 55.78013 39.59477 24508 ft 344 kts 265°
2026-04-22 17:49 55.77728 39.55276 24300 ft 341 kts 265°
2026-04-22 17:49 55.77446 39.51103 24098 ft 339 kts 265°
2026-04-22 17:50 55.77165 39.46964 23904 ft 337 kts 265°
2026-04-22 17:50 55.76883 39.42842 23704 ft 335 kts 265°
2026-04-22 17:50 55.76601 39.38747 23553 ft 333 kts 265°
2026-04-22 17:50 55.76318 39.34682 23467 ft 332 kts 265°
2026-04-22 17:51 55.76031 39.30584 23385 ft 336 kts 265°
2026-04-22 17:51 55.75741 39.26450 23298 ft 339 kts 265°
2026-04-22 17:51 55.75448 39.22309 23200 ft 337 kts 265°
2026-04-22 17:51 55.75160 39.18248 23093 ft 336 kts 265°
2026-04-22 17:52 55.74867 39.14146 22999 ft 334 kts 265°
2026-04-22 17:52 55.74575 39.10069 22906 ft 333 kts 265°
2026-04-22 17:52 55.74283 39.05990 22818 ft 332 kts 265°
2026-04-22 17:52 55.73990 39.01932 22724 ft 331 kts 265°
2026-04-22 17:53 55.73696 38.97885 22645 ft 331 kts 265°
2026-04-22 17:53 55.73407 38.93839 22549 ft 330 kts 266°
2026-04-22 17:53 55.73380 38.89745 22206 ft 335 kts 275°
2026-04-22 17:53 55.73595 38.85623 21878 ft 335 kts 277°
2026-04-22 17:54 55.73858 38.81529 21530 ft 333 kts 278°
2026-04-22 17:54 55.74108 38.77453 21195 ft 331 kts 277°
2026-04-22 17:54 55.74334 38.73421 20857 ft 327 kts 277°
2026-04-22 17:54 55.74540 38.69428 20526 ft 323 kts 276°
2026-04-22 17:55 55.74669 38.66807 20312 ft 320 kts 276°
2026-04-22 17:55 55.74921 38.61574 19889 ft 316 kts 276°
2026-04-22 17:55 55.75224 38.57740 19611 ft 312 kts 288°
2026-04-22 17:55 55.76159 38.54239 19586 ft 317 kts 303°
2026-04-22 17:56 55.77428 38.51039 19574 ft 316 kts 306°
2026-04-22 17:56 55.78722 38.47895 19563 ft 314 kts 306°
2026-04-22 17:56 55.80001 38.44745 19564 ft 314 kts 305°
2026-04-22 17:56 55.81268 38.41575 19561 ft 314 kts 304°
2026-04-22 17:57 55.82528 38.38402 19562 ft 314 kts 304°
2026-04-22 17:57 55.83828 38.35241 19287 ft 319 kts 307°
2026-04-22 17:57 55.85182 38.32128 18977 ft 317 kts 307°
2026-04-22 17:57 55.86541 38.29041 18679 ft 317 kts 307°
2026-04-22 17:58 55.87894 38.25961 18386 ft 314 kts 307°
2026-04-22 17:58 55.89228 38.22905 18076 ft 311 kts 307°
2026-04-22 17:58 55.90545 38.19877 17774 ft 307 kts 307°
2026-04-22 17:58 55.91844 38.16878 17447 ft 304 kts 307°
2026-04-22 17:59 55.93125 38.13913 17142 ft 300 kts 307°
2026-04-22 17:59 55.94390 38.10981 16852 ft 297 kts 307°
2026-04-22 17:59 55.95639 38.08081 16576 ft 293 kts 307°
2026-04-22 17:59 55.96879 38.05198 16301 ft 293 kts 307°
2026-04-22 18:00 55.97701 38.03285 16118 ft 293 kts 307°
2026-04-22 18:00 55.99357 37.99427 15748 ft 292 kts 307°
2026-04-22 18:00 56.00440 37.96372 15479 ft 291 kts 291°
2026-04-22 18:00 56.00940 37.92884 15329 ft 291 kts 281°
2026-04-22 18:01 56.01297 37.89328 15143 ft 291 kts 281°
2026-04-22 18:01 56.01654 37.85765 14958 ft 291 kts 281°
2026-04-22 18:01 56.02019 37.82204 14772 ft 291 kts 281°
2026-04-22 18:01 56.02688 37.78818 14567 ft 290 kts 302°
2026-04-22 18:02 56.04011 37.76096 14349 ft 293 kts 320°
2026-04-22 18:02 56.05786 37.74278 14115 ft 296 kts 332°
2026-04-22 18:02 56.07663 37.72751 13855 ft 297 kts 333°
2026-04-22 18:02 56.09543 37.71231 13587 ft 295 kts 333°
2026-04-22 18:03 56.11370 37.69736 13332 ft 290 kts 332°
2026-04-22 18:03 56.13311 37.68634 13024 ft 291 kts 350°
2026-04-22 18:03 56.15305 37.68690 12784 ft 290 kts
2026-04-22 18:03 56.17313 37.69021 12521 ft 289 kts
2026-04-22 18:04 56.19310 37.69372 12265 ft 288 kts
2026-04-22 18:04 56.21304 37.69706 12021 ft 287 kts
2026-04-22 18:04 56.23290 37.70022 11762 ft 286 kts
2026-04-22 18:04 56.25269 37.70329 11510 ft 284 kts
2026-04-22 18:05 56.27226 37.70630 11254 ft 280 kts
2026-04-22 18:05 56.29147 37.70636 10988 ft 271 kts 343°
2026-04-22 18:05 56.30821 37.69322 10797 ft 259 kts 322°
2026-04-22 18:05 56.32080 37.67102 10580 ft 251 kts 308°
2026-04-22 18:06 56.33184 37.64696 10355 ft 247 kts 307°
2026-04-22 18:06 56.34266 37.62322 10142 ft 244 kts 307°
2026-04-22 18:06 56.35341 37.59973 9924 ft 242 kts 307°
2026-04-22 18:06 56.36401 37.57666 9867 ft 234 kts 307°
2026-04-22 18:07 56.37034 37.56131 9901 ft 227 kts 295°
2026-04-22 18:07 56.37076 37.52436 9790 ft 234 kts 245°
2026-04-22 18:07 56.35939 37.50276 9429 ft 255 kts 210°
2026-04-22 18:07 56.34188 37.49753 9186 ft 264 kts 174°
2026-04-22 18:08 56.32532 37.51188 8915 ft 272 kts 138°
2026-04-22 18:08 56.31453 37.53977 8678 ft 271 kts 123°
2026-04-22 18:08 56.30144 37.56292 8358 ft 262 kts 160°
2026-04-22 18:08 56.28431 37.57014 8088 ft 252 kts 178°
2026-04-22 18:09 56.26626 37.57370 7419 ft 268 kts 179°
2026-04-22 18:09 56.24726 37.57732 6740 ft 282 kts 179°
2026-04-22 18:09 56.22722 37.58118 6021 ft 296 kts 179°
2026-04-22 18:09 56.20658 37.58625 5207 ft 305 kts 170°
2026-04-22 18:10 56.18784 37.60425 4924 ft 302 kts 145°
2026-04-22 18:10 56.17277 37.62960 4741 ft 294 kts 137°
2026-04-22 18:10 56.15898 37.65614 4589 ft 287 kts 136°
2026-04-22 18:10 56.14549 37.68193 4442 ft 280 kts 137°
2026-04-22 18:11 56.13217 37.70683 4300 ft 272 kts 138°
2026-04-22 18:11 56.11915 37.73083 4181 ft 265 kts 139°
2026-04-22 18:11 56.10637 37.75382 4045 ft 255 kts 145°
2026-04-22 18:11 56.09140 37.76699 3939 ft 229 kts 176°
2026-04-22 18:12 56.07626 37.76735 3750 ft 209 kts 197°
2026-04-22 18:12 56.06285 37.76075 3598 ft 193 kts 205°
2026-04-22 18:12 56.05464 37.75577 3512 ft 184 kts 206°
2026-04-22 18:12 56.03903 37.74615 3300 ft 171 kts 206°
2026-04-22 18:13 56.02850 37.73788 3155 ft 161 kts 227°
2026-04-22 18:13 56.02383 37.72142 3118 ft 151 kts 256°
2026-04-22 18:13 56.01986 37.70375 2967 ft 153 kts 248°
2026-04-22 18:13 56.01534 37.68645 2785 ft 152 kts 249°
2026-04-22 18:14 56.01173 37.66895 2666 ft 150 kts 255°
2026-04-22 18:14 56.00892 37.65076 2582 ft 152 kts 252°
2026-04-22 18:14 56.00456 37.63334 2465 ft 153 kts 251°
2026-04-22 18:14 56.00158 37.61585 2506 ft 149 kts 255°
2026-04-22 18:15 55.99891 37.59842 2447 ft 143 kts 256°
2026-04-22 18:15 55.99641 37.58177 2286 ft 135 kts 255°
2026-04-22 18:15 55.99402 37.56587 2119 ft 130 kts 255°
2026-04-22 18:15 55.99167 37.55027 1944 ft 131 kts 255°
2026-04-22 18:16 55.98926 37.53431 1767 ft 134 kts 255°
2026-04-22 18:16 55.98681 37.51803 1523 ft 138 kts 253°
2026-04-22 18:16 55.98432 37.50123 1312 ft 144 kts 253°
2026-04-22 18:16 55.98167 37.48372 1134 ft 147 kts 253°
2026-04-22 18:17 55.97906 37.46593 918 ft 150 kts 254°
2026-04-22 18:17 55.97638 37.44801 699 ft 149 kts 252°
2026-04-22 18:17 55.97373 37.43043 642 ft 138 kts 255°
2026-04-22 18:17 55.97172 37.41687 643 ft 62 kts 255°
2026-04-22 18:18 55.97143 37.41375 639 ft 12 kts 301°
2026-04-22 18:18 55.97217 37.41321 638 ft 12 kts 345°
2026-04-22 18:18 55.97293 37.41284 639 ft 11 kts 345°
2026-04-22 18:18 55.97367 37.41248 639 ft 11 kts 345°
2026-04-22 18:19 55.97443 37.41213 638 ft 13 kts 345°
2026-04-22 18:19 55.97506 37.41183 641 ft 15 kts 345°
2026-04-22 18:19 55.97598 37.41139 640 ft 4 kts 348°
2026-04-22 18:19 55.97628 37.41128 638 ft 5 kts 351°
2026-04-22 18:20 55.97673 37.41121 642 ft 7 kts 355°
2026-04-22 18:20 55.97707 37.41115 643 ft 0 kts 354°